| time (UTC) | temp F | wind direction | speed knots | gust knots | rain 1hr in | rain 24hr in | rain mn in | humidity % | barometer mb |
| 20260906090546 | 74 | 0 | 0.0 | 3.5 | 0.00 | 0.00 | 0.00 | 92 | 1013.9 |
| 20260906090100 | 74 | 0 | 0.0 | 3.5 | 0.00 | 0.00 | 0.00 | 92 | 1013.9 |
| 20260906085546 | 74 | 8 | 0.0 | 3.5 | 0.00 | 0.00 | 0.00 | 93 | 1013.7 |
| 20260906085048 | 74 | 0 | 0.0 | 2.6 | 0.00 | 0.00 | 0.00 | 93 | 1013.8 |
| 20260906084606 | 74 | 0 | 0.0 | 3.5 | 0.00 | 0.00 | 0.00 | 93 | 1013.7 |
| 20260906084045 | 74 | 0 | 0.0 | 3.5 | 0.00 | 0.00 | 0.00 | 93 | 1013.6 |
| 20260906083547 | 74 | 273 | 0.0 | 1.7 | 0.00 | 0.00 | 0.00 | 94 | 1013.7 |
| 20260906083055 | 73 | 0 | 0.0 | 0.9 | 0.00 | 0.00 | 0.00 | 94 | 1013.8 |
| 20260906082546 | 73 | 333 | 0.0 | 1.7 | 0.00 | 0.00 | 0.00 | 94 | 1013.7 |
| 20260906082046 | 73 | 0 | 0.0 | 1.7 | 0.00 | 0.00 | 0.00 | 94 | 1013.5 |
| 20260906081553 | 73 | 0 | 0.0 | 1.7 | 0.00 | 0.00 | 0.00 | 94 | 1013.5 |
| 20260906081042 | 73 | 0 | 0.0 | 0.9 | 0.00 | 0.00 | 0.00 | 94 | 1013.5 |
| 20260906080545 | 73 | 0 | 0.0 | 1.7 | 0.00 | 0.00 | 0.00 | 94 | 1013.5 |
| 20260906080103 | 73 | 334 | 0.0 | 1.7 | 0.00 | 0.00 | 0.00 | 94 | 1013.6 |
| 20260906075543 | 73 | 0 | 0.0 | 1.7 | 0.00 | 0.00 | 0.00 | 94 | 1013.6 |
| 20260906075046 | 73 | 0 | 0.0 | 1.7 | 0.00 | 0.00 | 0.00 | 94 | 1013.6 |
| 20260906074600 | 73 | 0 | 0.0 | 1.7 | 0.00 | 0.00 | 0.00 | 94 | 1013.6 |
| 20260906074042 | 73 | 0 | 0.0 | 2.6 | 0.00 | 0.00 | 0.00 | 94 | 1013.5 |
| 20260906073546 | 73 | 0 | 0.0 | 2.6 | 0.00 | 0.00 | 0.00 | 93 | 1013.6 |
| 20260906073105 | 74 | 0 | 0.0 | 1.7 | 0.00 | 0.00 | 0.00 | 93 | 1013.7 |
| 20260906072546 | 74 | 0 | 0.0 | 0.9 | 0.00 | 0.00 | 0.00 | 93 | 1013.7 |
| 20260906072044 | 74 | 0 | 0.0 | 0.9 | 0.00 | 0.00 | 0.00 | 93 | 1013.8 |
| 20260906071602 | 74 | 0 | 0.0 | 0.9 | 0.00 | 0.00 | 0.00 | 92 | 1013.8 |
| 20260906071046 | 74 | 0 | 0.0 | 0.9 | 0.00 | 0.00 | 0.00 | 92 | 1014.0 |
| 20260906070547 | 74 | 0 | 0.0 | 0.9 | 0.00 | 0.00 | 0.00 | 91 | 1013.9 |
| 20260906070105 | 74 | 0 | 0.0 | 0.9 | 0.00 | 0.00 | 0.00 | 91 | 1013.8 |
| 20260906065547 | 74 | 0 | 0.0 | 0.9 | 0.00 | 0.00 | 0.00 | 91 | 1013.8 |
| 20260906065049 | 74 | 323 | 0.0 | 0.9 | 0.00 | 0.00 | 0.00 | 91 | 1013.8 |
| 20260906064556 | 74 | 0 | 0.0 | 0.9 | 0.00 | 0.00 | 0.00 | 90 | 1013.8 |
| 20260906064047 | 74 | 0 | 0.0 | 0.9 | 0.00 | 0.00 | 0.00 | 90 | 1013.8 |
| 20260906063543 | 74 | 323 | 0.0 | 0.9 | 0.00 | 0.00 | 0.00 | 90 | 1013.9 |
| 20260906063106 | 75 | 0 | 0.0 | 0.9 | 0.00 | 0.00 | 0.00 | 89 | 1013.9 |
| 20260906062546 | 75 | 0 | 0.0 | 0.9 | 0.00 | 0.00 | 0.00 | 89 | 1013.9 |
| 20260906062046 | 75 | 0 | 0.0 | 0.9 | 0.00 | 0.00 | 0.00 | 88 | 1013.9 |
| 20260906061607 | 75 | 0 | 0.0 | 0.9 | 0.00 | 0.00 | 0.00 | 88 | 1013.9 |
| 20260906061046 | 75 | 0 | 0.0 | 0.9 | 0.00 | 0.00 | 0.00 | 87 | 1014.0 |
| 20260906060545 | 76 | 0 | 0.0 | 1.7 | 0.00 | 0.00 | 0.00 | 87 | 1013.9 |
| 20260906060105 | 76 | 0 | 0.0 | 1.7 | 0.00 | 0.00 | 0.00 | 86 | 1013.9 |
| 20260906055541 | 76 | 287 | 0.0 | 1.7 | 0.00 | 0.00 | 0.00 | 86 | 1013.8 |
| 20260906055041 | 76 | 302 | 0.0 | 1.7 | 0.00 | 0.00 | 0.00 | 85 | 1013.8 |
| 20260906054557 | 76 | 0 | 0.0 | 1.7 | 0.00 | 0.00 | 0.00 | 84 | 1013.8 |
| 20260906054040 | 76 | 0 | 0.0 | 0.9 | 0.00 | 0.00 | 0.00 | 84 | 1013.7 |
| 20260906053541 | 77 | 0 | 0.0 | 2.6 | 0.00 | 0.00 | 0.00 | 84 | 1013.8 |
| 20260906053110 | 77 | 0 | 0.0 | 2.6 | 0.00 | 0.00 | 0.00 | 84 | 1013.8 |
| 20260906052544 | 77 | 0 | 0.0 | 2.6 | 0.00 | 0.00 | 0.00 | 83 | 1013.8 |
| 20260906052042 | 77 | 0 | 0.0 | 1.7 | 0.00 | 0.00 | 0.00 | 83 | 1013.8 |
| 20260906051605 | 77 | 0 | 0.0 | 1.7 | 0.00 | 0.00 | 0.00 | 83 | 1013.7 |
| 20260906051043 | 77 | 0 | 0.0 | 1.7 | 0.00 | 0.00 | 0.00 | 83 | 1013.6 |
| 20260906050546 | 77 | 0 | 0.0 | 1.7 | 0.00 | 0.00 | 0.00 | 83 | 1013.6 |
| 20260906050104 | 77 | 0 | 0.0 | 1.7 | 0.00 | 0.00 | 0.00 | 83 | 1013.6 |
| 20260906045543 | 77 | 0 | 0.0 | 1.7 | 0.00 | 0.00 | 0.00 | 82 | 1013.6 |
| 20260906045040 | 77 | 0 | 0.0 | 0.9 | 0.00 | 0.00 | 0.00 | 82 | 1013.5 |
| 20260906044555 | 77 | 359 | 0.0 | 0.9 | 0.00 | 0.00 | 0.00 | 81 | 1013.4 |
| 20260906044042 | 77 | 0 | 0.0 | 0.9 | 0.00 | 0.00 | 0.00 | 81 | 1013.4 |
| 20260906043542 | 77 | 0 | 0.0 | 0.9 | 0.00 | 0.00 | 0.00 | 80 | 1013.4 |
| 20260906043107 | 78 | 0 | 0.0 | 0.9 | 0.00 | 0.00 | 0.00 | 80 | 1013.3 |
| 20260906042541 | 78 | 0 | 0.0 | 0.9 | 0.00 | 0.00 | 0.00 | 79 | 1013.1 |
| 20260906042041 | 78 | 0 | 0.0 | 0.9 | 0.00 | 0.00 | 0.00 | 79 | 1013.1 |
| 20260906041557 | 78 | 0 | 0.0 | 0.9 | 0.00 | 0.00 | 0.00 | 78 | 1013.1 |
| 20260906041042 | 79 | 0 | 0.0 | 0.9 | 0.00 | 0.00 | 0.00 | 78 | 1013.0 |
| 20260906040545 | 79 | 0 | 0.0 | 0.9 | 0.00 | 0.00 | 0.00 | 77 | 1013.0 |
| 20260906040103 | 79 | 0 | 0.0 | 1.7 | 0.00 | 0.00 | 0.00 | 77 | 1013.1 |
| 20260906035541 | 79 | 0 | 0.0 | 2.6 | 0.00 | 0.00 | 0.00 | 76 | 1013.1 |
| 20260906035042 | 79 | 18 | 0.0 | 2.6 | 0.00 | 0.00 | 0.00 | 75 | 1013.1 |
| 20260906034555 | 80 | 277 | 0.0 | 2.6 | 0.00 | 0.00 | 0.00 | 75 | 1013.2 |
| 20260906034043 | 80 | 0 | 0.0 | 2.6 | 0.00 | 0.00 | 0.00 | 75 | 1013.2 |
| 20260906033545 | 80 | 273 | 0.0 | 2.6 | 0.00 | 0.00 | 0.00 | 75 | 1013.2 |
| 20260906033116 | 80 | 0 | 0.0 | 2.6 | 0.00 | 0.00 | 0.00 | 75 | 1013.1 |
| 20260906032543 | 80 | 0 | 0.0 | 2.6 | 0.00 | 0.00 | 0.00 | 75 | 1013.2 |
| 20260906032043 | 81 | 45 | 0.0 | 2.6 | 0.00 | 0.00 | 0.00 | 74 | 1013.1 |
| 20260906031600 | 81 | 48 | 0.0 | 1.7 | 0.00 | 0.00 | 0.00 | 74 | 1013.0 |
| 20260906031043 | 81 | 0 | 0.0 | 1.7 | 0.00 | 0.00 | 0.00 | 74 | 1013.0 |
| 20260906030540 | 81 | 0 | 0.0 | 0.9 | 0.00 | 0.00 | 0.00 | 73 | 1013.0 |
| 20260906030059 | 81 | 4 | 0.0 | 0.9 | 0.00 | 0.00 | 0.00 | 73 | 1012.9 |
| 20260906025545 | 81 | 4 | 0.0 | 0.9 | 0.00 | 0.00 | 0.00 | 73 | 1012.8 |
| 20260906025048 | 82 | 0 | 0.0 | 0.9 | 0.00 | 0.00 | 0.00 | 72 | 1012.7 |
| 20260906024558 | 82 | 9 | 0.0 | 1.7 | 0.00 | 0.00 | 0.00 | 72 | 1012.7 |
| 20260906024045 | 82 | 0 | 0.0 | 1.7 | 0.00 | 0.00 | 0.00 | 72 | 1012.7 |
| 20260906023547 | 82 | 0 | 0.0 | 1.7 | 0.00 | 0.00 | 0.00 | 72 | 1012.7 |
| 20260906023055 | 83 | 14 | 0.0 | 1.7 | 0.00 | 0.00 | 0.00 | 71 | 1012.6 |
| 20260906022545 | 83 | 14 | 0.0 | 1.7 | 0.00 | 0.00 | 0.00 | 71 | 1012.5 |
| 20260906022047 | 83 | 0 | 0.0 | 2.6 | 0.00 | 0.00 | 0.00 | 70 | 1012.3 |
| 20260906021552 | 83 | 0 | 0.0 | 2.6 | 0.00 | 0.00 | 0.00 | 71 | 1012.3 |
| 20260906021043 | 83 | 23 | 0.0 | 2.6 | 0.00 | 0.00 | 0.00 | 70 | 1012.3 |
| 20260906020543 | 83 | 358 | 0.9 | 2.6 | 0.00 | 0.00 | 0.00 | 70 | 1012.4 |
| 20260906020109 | 83 | 17 | 0.0 | 1.7 | 0.00 | 0.00 | 0.00 | 70 | 1012.4 |
| 20260906015544 | 83 | 26 | 0.0 | 2.6 | 0.00 | 0.00 | 0.00 | 71 | 1012.4 |
| 20260906015043 | 83 | 9 | 0.0 | 2.6 | 0.00 | 0.00 | 0.00 | 72 | 1012.3 |
| 20260906014606 | 83 | 0 | 0.0 | 2.6 | 0.00 | 0.00 | 0.00 | 75 | 1012.2 |
| 20260906014043 | 83 | 0 | 0.0 | 2.6 | 0.00 | 0.00 | 0.00 | 77 | 1012.1 |
| 20260906013547 | 83 | 0 | 0.0 | 0.0 | 0.00 | 0.00 | 0.00 | 77 | 1011.8 |
| 20260906013106 | 83 | 0 | 0.0 | 0.0 | 0.00 | 0.00 | 0.00 | 76 | 1011.7 |
| 20260906012547 | 83 | 0 | 0.0 | 0.0 | 0.00 | 0.00 | 0.00 | 75 | 1011.5 |
| 20260906012044 | 84 | 0 | 0.0 | 0.0 | 0.00 | 0.00 | 0.00 | 74 | 1011.5 |
| 20260906011602 | 84 | 0 | 0.0 | 0.0 | 0.00 | 0.00 | 0.00 | 74 | 1011.5 |
| 20260906011042 | 84 | 0 | 0.0 | 0.0 | 0.00 | 0.00 | 0.00 | 73 | 1011.4 |
| 20260906010542 | 84 | 0 | 0.0 | 0.9 | 0.00 | 0.00 | 0.00 | 72 | 1011.4 |
| 20260906010057 | 85 | 0 | 0.0 | 0.9 | 0.00 | 0.00 | 0.00 | 71 | 1011.2 |
| 20260906005543 | 85 | 256 | 0.0 | 0.9 | 0.00 | 0.00 | 0.00 | 70 | 1011.1 |
| 20260906005043 | 86 | 0 | 0.0 | 0.9 | 0.00 | 0.00 | 0.00 | 70 | 1011.1 |
| 20260906004556 | 86 | 0 | 0.0 | 0.9 | 0.00 | 0.00 | 0.00 | 69 | 1011.2 |
| 20260906004045 | 87 | 0 | 0.0 | 0.9 | 0.00 | 0.00 | 0.00 | 68 | 1011.2 |
| 20260906003543 | 87 | 0 | 0.0 | 0.9 | 0.00 | 0.00 | 0.00 | 68 | 1011.1 |
| 20260906003057 | 87 | 0 | 0.0 | 0.9 | 0.00 | 0.00 | 0.00 | 65 | 1011.2 |
| 20260906002545 | 88 | 0 | 0.0 | 0.9 | 0.00 | 0.00 | 0.00 | 64 | 1011.4 |
| 20260906002043 | 88 | 0 | 0.0 | 0.9 | 0.00 | 0.00 | 0.00 | 63 | 1011.3 |
| 20260906001553 | 88 | 0 | 0.0 | 0.9 | 0.00 | 0.00 | 0.00 | 63 | 1011.3 |
| 20260906001045 | 88 | 0 | 0.0 | 0.0 | 0.00 | 0.00 | 0.00 | 62 | 1011.4 |
| 20260906000545 | 89 | 0 | 0.0 | 0.9 | 0.00 | 0.00 | 0.00 | 61 | 1011.5 |
| 20260906000107 | 89 | 0 | 0.0 | 0.9 | 0.00 | 0.00 | 0.00 | 60 | 1011.6 |
| 20260905235543 | 89 | 0 | 0.0 | 0.9 | 0.00 | 0.00 | 0.00 | 59 | 1011.6 |
| 20260905235043 | 90 | 0 | 0.0 | 0.9 | 0.00 | 0.00 | 0.00 | 58 | 1011.7 |
| 20260905234557 | 90 | 0 | 0.0 | 0.9 | 0.00 | 0.00 | 0.00 | 57 | 1011.4 |
| 20260905234042 | 91 | 0 | 0.0 | 0.9 | 0.00 | 0.00 | 0.00 | 57 | 1011.4 |
| 20260905233545 | 91 | 0 | 0.0 | 0.9 | 0.00 | 0.00 | 0.00 | 56 | 1011.5 |
| 20260905233053 | 91 | 0 | 0.0 | 0.9 | 0.00 | 0.00 | 0.00 | 55 | 1011.4 |
| 20260905232544 | 91 | 0 | 0.0 | 1.7 | 0.00 | 0.00 | 0.00 | 55 | 1011.5 |
| 20260905232043 | 92 | 0 | 0.0 | 1.7 | 0.00 | 0.00 | 0.00 | 54 | 1011.4 |
| 20260905231555 | 92 | 0 | 0.0 | 1.7 | 0.00 | 0.00 | 0.00 | 54 | 1011.4 |
| 20260905231044 | 92 | 0 | 0.0 | 3.5 | 0.00 | 0.00 | 0.00 | 54 | 1011.4 |
| 20260905230543 | 92 | 0 | 0.0 | 3.5 | 0.00 | 0.00 | 0.00 | 52 | 1011.1 |
| 20260905230105 | 93 | 0 | 0.9 | 3.5 | 0.00 | 0.00 | 0.00 | 51 | 1011.1 |
| 20260905225544 | 94 | 281 | 0.0 | 2.6 | 0.00 | 0.00 | 0.00 | 50 | 1011.1 |
| 20260905225043 | 95 | 274 | 0.9 | 2.6 | 0.00 | 0.00 | 0.00 | 48 | 1011.0 |
| 20260905224556 | 95 | 265 | 0.0 | 1.7 | 0.00 | 0.00 | 0.00 | 48 | 1011.1 |
| 20260905224043 | 95 | 325 | 0.0 | 2.6 | 0.00 | 0.00 | 0.00 | 48 | 1011.1 |
| 20260905223548 | 95 | 290 | 0.0 | 2.6 | 0.00 | 0.00 | 0.00 | 47 | 1011.1 |
| 20260905223055 | 95 | 9 | 0.0 | 2.6 | 0.00 | 0.00 | 0.00 | 49 | 1011.0 |
| 20260905222544 | 95 | 0 | 0.0 | 2.6 | 0.00 | 0.00 | 0.00 | 48 | 1011.1 |
| 20260905222047 | 95 | 0 | 0.9 | 2.6 | 0.00 | 0.00 | 0.00 | 47 | 1011.0 |
| 20260905221604 | 95 | 266 | 0.0 | 2.6 | 0.00 | 0.00 | 0.00 | 48 | 1011.0 |
| 20260905221043 | 96 | 0 | 0.0 | 2.6 | 0.00 | 0.00 | 0.00 | 47 | 1010.9 |
| 20260905220543 | 96 | 30 | 0.9 | 2.6 | 0.00 | 0.00 | 0.00 | 47 | 1010.8 |
| 20260905220105 | 96 | 24 | 0.9 | 4.3 | 0.00 | 0.00 | 0.00 | 48 | 1010.9 |
| 20260905215543 | 96 | 320 | 0.9 | 4.3 | 0.00 | 0.00 | 0.00 | 46 | 1010.8 |
| 20260905215042 | 96 | 0 | 0.0 | 4.3 | 0.00 | 0.00 | 0.00 | 46 | 1011.0 |
| 20260905214602 | 96 | 0 | 0.9 | 2.6 | 0.00 | 0.00 | 0.00 | 46 | 1011.1 |
| 20260905214045 | 97 | 245 | 0.9 | 2.6 | 0.00 | 0.00 | 0.00 | 45 | 1011.1 |
| 20260905213543 | 97 | 255 | 0.0 | 3.5 | 0.00 | 0.00 | 0.00 | 44 | 1011.1 |
| 20260905213053 | 97 | 1 | 0.9 | 3.5 | 0.00 | 0.00 | 0.00 | 45 | 1010.9 |
| 20260905212545 | 97 | 0 | 0.9 | 3.5 | 0.00 | 0.00 | 0.00 | 43 | 1011.0 |
| 20260905212044 | 97 | 27 | 0.9 | 2.6 | 0.00 | 0.00 | 0.00 | 44 | 1011.0 |
| 20260905211602 | 97 | 0 | 0.9 | 2.6 | 0.00 | 0.00 | 0.00 | 45 | 1011.0 |
| 20260905211043 | 97 | 20 | 0.9 | 2.6 | 0.00 | 0.00 | 0.00 | 43 | 1010.9 |
| 20260905210542 | 97 | 0 | 0.0 | 3.5 | 0.00 | 0.00 | 0.00 | 45 | 1011.1 |
| 20260905210115 | 97 | 0 | 0.0 | 3.5 | 0.00 | 0.00 | 0.00 | 45 | 1011.1 |
| 20260905205542 | 97 | 36 | 0.9 | 2.6 | 0.00 | 0.00 | 0.00 | 43 | 1011.3 |
| 20260905205046 | 97 | 0 | 0.0 | 2.6 | 0.00 | 0.00 | 0.00 | 45 | 1011.5 |
| 20260905204606 | 96 | 302 | 0.9 | 3.5 | 0.00 | 0.00 | 0.00 | 45 | 1011.5 |
| 20260905204044 | 96 | 291 | 0.9 | 3.5 | 0.00 | 0.00 | 0.00 | 44 | 1011.7 |
| 20260905203543 | 96 | 261 | 0.0 | 3.5 | 0.00 | 0.00 | 0.00 | 43 | 1011.7 |
| 20260905203058 | 96 | 37 | 0.9 | 3.5 | 0.00 | 0.00 | 0.00 | 46 | 1011.9 |
| 20260905202543 | 96 | 0 | 0.9 | 3.5 | 0.00 | 0.00 | 0.00 | 43 | 1011.8 |
| 20260905202042 | 97 | 281 | 0.9 | 3.5 | 0.00 | 0.00 | 0.00 | 42 | 1011.9 |
| 20260905201607 | 97 | 65 | 0.9 | 3.5 | 0.00 | 0.00 | 0.00 | 42 | 1011.9 |
| 20260905201044 | 97 | 37 | 0.9 | 3.5 | 0.00 | 0.00 | 0.00 | 44 | 1011.9 |
| 20260905200542 | 96 | 224 | 0.0 | 3.5 | 0.00 | 0.00 | 0.00 | 46 | 1012.0 |
| 20260905200117 | 96 | 1 | 0.9 | 3.5 | 0.00 | 0.00 | 0.00 | 43 | 1012.0 |
| 20260905195544 | 97 | 252 | 0.9 | 3.5 | 0.00 | 0.00 | 0.00 | 42 | 1012.0 |
| 20260905195043 | 97 | 0 | 0.9 | 4.3 | 0.00 | 0.00 | 0.00 | 45 | 1011.9 |
| 20260905194611 | 97 | 136 | 0.9 | 4.3 | 0.00 | 0.00 | 0.00 | 44 | 1012.0 |
| 20260905194043 | 97 | 338 | 0.0 | 4.3 | 0.00 | 0.00 | 0.00 | 45 | 1012.0 |
| 20260905193544 | 96 | 0 | 0.9 | 4.3 | 0.00 | 0.00 | 0.00 | 44 | 1012.2 |
| 20260905193103 | 96 | 40 | 0.9 | 3.5 | 0.00 | 0.00 | 0.00 | 43 | 1012.1 |
| 20260905192543 | 96 | 0 | 0.9 | 4.3 | 0.00 | 0.00 | 0.00 | 46 | 1012.2 |
| 20260905192049 | 96 | 293 | 1.7 | 4.3 | 0.00 | 0.00 | 0.00 | 45 | 1012.3 |
| 20260905191558 | 96 | 69 | 0.9 | 2.6 | 0.00 | 0.00 | 0.00 | 43 | 1012.3 |
| 20260905191044 | 95 | 214 | 0.9 | 2.6 | 0.00 | 0.00 | 0.00 | 45 | 1012.4 |
| 20260905190544 | 95 | 60 | 0.9 | 3.5 | 0.00 | 0.00 | 0.00 | 46 | 1012.6 |
| 20260905190109 | 94 | 29 | 1.7 | 4.3 | 0.00 | 0.00 | 0.00 | 50 | 1012.8 |
| 20260905185543 | 94 | 123 | 1.7 | 4.3 | 0.00 | 0.00 | 0.00 | 49 | 1012.7 |
| 20260905185043 | 94 | 0 | 0.9 | 4.3 | 0.00 | 0.00 | 0.00 | 47 | 1012.9 |
| 20260905184621 | 94 | 127 | 1.7 | 4.3 | 0.00 | 0.00 | 0.00 | 47 | 1012.9 |
| 20260905184043 | 94 | 309 | 0.9 | 3.5 | 0.00 | 0.00 | 0.00 | 47 | 1013.0 |
| 20260905183543 | 94 | 110 | 0.9 | 5.2 | 0.00 | 0.00 | 0.00 | 47 | 1013.0 |
| 20260905183108 | 94 | 156 | 0.9 | 5.2 | 0.00 | 0.00 | 0.00 | 45 | 1013.3 |
| 20260905182543 | 93 | 102 | 0.9 | 5.2 | 0.00 | 0.00 | 0.00 | 46 | 1013.3 |
| 20260905182043 | 93 | 330 | 0.9 | 4.3 | 0.00 | 0.00 | 0.00 | 46 | 1013.3 |
| 20260905181607 | 93 | 265 | 0.9 | 3.5 | 0.00 | 0.00 | 0.00 | 47 | 1013.4 |
| 20260905181046 | 93 | 149 | 0.9 | 4.3 | 0.00 | 0.00 | 0.00 | 47 | 1013.3 |
| 20260905180544 | 93 | 259 | 0.9 | 4.3 | 0.00 | 0.00 | 0.00 | 46 | 1013.5 |
| 20260905180103 | 93 | 218 | 0.9 | 3.5 | 0.00 | 0.00 | 0.00 | 47 | 1013.4 |
| 20260905175543 | 93 | 251 | 0.0 | 3.5 | 0.00 | 0.00 | 0.00 | 47 | 1013.5 |
| 20260905175043 | 92 | 0 | 0.9 | 3.5 | 0.00 | 0.00 | 0.00 | 46 | 1013.5 |
| 20260905174556 | 92 | 92 | 0.9 | 4.3 | 0.00 | 0.00 | 0.00 | 49 | 1013.5 |
| 20260905174042 | 91 | 314 | 0.0 | 5.2 | 0.00 | 0.00 | 0.00 | 49 | 1013.5 |
| 20260905173546 | 91 | 139 | 1.7 | 5.2 | 0.00 | 0.00 | 0.00 | 48 | 1013.5 |
| 20260905173116 | 91 | 172 | 0.9 | 6.1 | 0.00 | 0.00 | 0.00 | 49 | 1013.6 |
| 20260905172543 | 90 | 203 | 0.9 | 6.1 | 0.00 | 0.00 | 0.00 | 51 | 1013.7 |
| 20260905172043 | 90 | 239 | 2.6 | 6.1 | 0.00 | 0.00 | 0.00 | 50 | 1013.7 |
| 20260905171624 | 90 | 267 | 2.6 | 5.2 | 0.00 | 0.00 | 0.00 | 50 | 1013.7 |
| 20260905171043 | 90 | 127 | 1.7 | 5.2 | 0.00 | 0.00 | 0.00 | 51 | 1013.9 |
| 20260905170544 | 90 | 214 | 0.9 | 6.1 | 0.00 | 0.00 | 0.00 | 50 | 1013.9 |
| 20260905165544 | 89 | 358 | 0.9 | 6.1 | 0.00 | 0.00 | 0.00 | 50 | 1014.3 |
| 20260905165043 | 89 | 0 | 1.7 | 5.2 | 0.00 | 0.00 | 0.00 | 52 | 1014.4 |
| 20260905164555 | 89 | 193 | 0.9 | 4.3 | 0.00 | 0.00 | 0.00 | 51 | 1014.6 |
| 20260905164044 | 88 | 96 | 1.7 | 8.7 | 0.00 | 0.00 | 0.00 | 50 | 1014.5 |
| 20260905163546 | 88 | 335 | 0.9 | 8.7 | 0.00 | 0.00 | 0.00 | 50 | 1014.5 |
| 20260905163102 | 88 | 17 | 3.5 | 8.7 | 0.00 | 0.00 | 0.00 | 51 | 1014.5 |
| 20260905162543 | 88 | 199 | 3.5 | 5.2 | 0.00 | 0.00 | 0.00 | 51 | 1014.4 |
| 20260905162043 | 88 | 153 | 0.9 | 4.3 | 0.00 | 0.00 | 0.00 | 51 | 1014.2 |
| 20260905161551 | 88 | 212 | 1.7 | 4.3 | 0.00 | 0.00 | 0.00 | 51 | 1014.3 |
| 20260905161045 | 87 | 138 | 1.7 | 5.2 | 0.00 | 0.00 | 0.00 | 52 | 1014.2 |
| 20260905160546 | 87 | 0 | 0.9 | 5.2 | 0.00 | 0.00 | 0.00 | 54 | 1014.2 |
| 20260905155544 | 86 | 212 | 0.9 | 5.2 | 0.00 | 0.00 | 0.00 | 52 | 1014.4 |
| 20260905155043 | 86 | 342 | 1.7 | 7.0 | 0.00 | 0.00 | 0.00 | 52 | 1014.9 |
| 20260905154614 | 85 | 1 | 1.7 | 7.0 | 0.00 | 0.00 | 0.00 | 53 | 1015.0 |
| 20260905154043 | 85 | 257 | 1.7 | 6.1 | 0.00 | 0.00 | 0.00 | 53 | 1015.1 |
| 20260905153545 | 85 | 258 | 0.9 | 5.2 | 0.00 | 0.00 | 0.00 | 55 | 1014.9 |
| 20260905153052 | 85 | 243 | 1.7 | 5.2 | 0.00 | 0.00 | 0.00 | 54 | 1014.9 |
| 20260905152543 | 85 | 15 | 1.7 | 5.2 | 0.00 | 0.00 | 0.00 | 54 | 1014.9 |
| 20260905152047 | 85 | 274 | 1.7 | 3.5 | 0.00 | 0.00 | 0.00 | 55 | 1014.9 |
| 20260905151605 | 84 | 340 | 0.9 | 7.0 | 0.00 | 0.00 | 0.00 | 55 | 1014.8 |
| 20260905151043 | 84 | 88 | 1.7 | 7.0 | 0.00 | 0.00 | 0.00 | 55 | 1014.9 |
| 20260905150542 | 84 | 210 | 2.6 | 7.0 | 0.00 | 0.00 | 0.00 | 53 | 1014.9 |
| 20260905150054 | 84 | 155 | 1.7 | 4.3 | 0.00 | 0.00 | 0.00 | 57 | 1014.7 |
| 20260905145543 | 84 | 98 | 0.9 | 5.2 | 0.00 | 0.00 | 0.00 | 58 | 1014.7 |
| 20260905145042 | 83 | 144 | 0.9 | 5.2 | 0.00 | 0.00 | 0.00 | 60 | 1014.8 |
| 20260905144603 | 83 | 204 | 1.7 | 7.0 | 0.00 | 0.00 | 0.00 | 60 | 1014.9 |
| 20260905144044 | 83 | 0 | 1.7 | 7.0 | 0.00 | 0.00 | 0.00 | 60 | 1015.0 |
| 20260905143544 | 83 | 195 | 0.9 | 5.2 | 0.00 | 0.00 | 0.00 | 59 | 1015.2 |
| 20260905143054 | 82 | 17 | 1.7 | 4.3 | 0.00 | 0.00 | 0.00 | 60 | 1015.3 |
| 20260905142542 | 82 | 34 | 1.7 | 7.8 | 0.00 | 0.00 | 0.00 | 61 | 1015.4 |
| 20260905142128 | 81 | 288 | 1.7 | 7.8 | 0.00 | 0.00 | 0.00 | 61 | 1015.2 |
| 20260905141603 | 81 | 293 | 1.7 | 7.0 | 0.00 | 0.00 | 0.00 | 62 | 1015.2 |
| 20260905141044 | 81 | 120 | 2.6 | 7.0 | 0.00 | 0.00 | 0.00 | 61 | 1015.1 |
| 20260905140545 | 81 | 219 | 1.7 | 5.2 | 0.00 | 0.00 | 0.00 | 63 | 1015.2 |
| 20260905140105 | 81 | 314 | 1.7 | 5.2 | 0.00 | 0.00 | 0.00 | 63 | 1015.4 |
| 20260905135545 | 81 | 25 | 1.7 | 7.0 | 0.00 | 0.00 | 0.00 | 64 | 1015.4 |
| 20260905135042 | 80 | 275 | 1.7 | 7.0 | 0.00 | 0.00 | 0.00 | 65 | 1015.3 |
| 20260905134601 | 80 | 191 | 1.7 | 7.0 | 0.00 | 0.00 | 0.00 | 67 | 1015.4 |
| 20260905134044 | 79 | 274 | 1.7 | 7.0 | 0.00 | 0.00 | 0.00 | 70 | 1015.5 |
| 20260905133546 | 79 | 269 | 1.7 | 6.1 | 0.00 | 0.00 | 0.00 | 72 | 1015.3 |
| 20260905133056 | 78 | 189 | 0.9 | 8.7 | 0.00 | 0.00 | 0.00 | 74 | 1015.3 |
| 20260905132544 | 78 | 321 | 2.6 | 8.7 | 0.00 | 0.00 | 0.00 | 76 | 1015.2 |
| 20260905132044 | 77 | 7 | 1.7 | 5.2 | 0.00 | 0.00 | 0.00 | 77 | 1015.3 |
| 20260905131610 | 77 | 94 | 0.9 | 6.1 | 0.00 | 0.00 | 0.00 | 78 | 1015.4 |
| 20260905131046 | 77 | 39 | 0.9 | 8.7 | 0.00 | 0.00 | 0.00 | 79 | 1015.4 |
| 20260905130544 | 77 | 33 | 2.6 | 8.7 | 0.00 | 0.00 | 0.00 | 79 | 1015.3 |
| 20260905125543 | 77 | 0 | 0.0 | 0.0 | 0.00 | 0.00 | 0.00 | 85 | 1015.3 |
| 20260905125043 | 76 | 0 | 0.0 | 0.0 | 0.00 | 0.00 | 0.00 | 90 | 1015.3 |
| 20260905124601 | 76 | 0 | 0.0 | 0.0 | 0.00 | 0.00 | 0.00 | 94 | 1015.3 |
| 20260905124042 | 75 | 0 | 0.0 | 0.0 | 0.00 | 0.00 | 0.00 | 96 | 1015.2 |
| 20260905123543 | 75 | 0 | 0.0 | 0.0 | 0.00 | 0.00 | 0.00 | 97 | 1015.0 |
| 20260905123101 | 74 | 0 | 0.0 | 0.0 | 0.00 | 0.00 | 0.00 | 98 | 1015.1 |
| 20260905122544 | 74 | 0 | 0.0 | 0.0 | 0.00 | 0.00 | 0.00 | 98 | 1015.1 |
| 20260905122043 | 74 | 0 | 0.0 | 0.0 | 0.00 | 0.00 | 0.00 | 98 | 1015.0 |
| 20260905121600 | 74 | 0 | 0.0 | 0.0 | 0.00 | 0.00 | 0.00 | 98 | 1014.3 |
| 20260905121043 | 73 | 0 | 0.0 | 0.0 | 0.00 | 0.00 | 0.00 | 98 | 1014.1 |
| 20260905120543 | 73 | 0 | 0.0 | 0.0 | 0.00 | 0.00 | 0.00 | 98 | 1014.1 |
| 20260905120104 | 73 | 0 | 0.0 | 0.0 | 0.00 | 0.00 | 0.00 | 98 | 1014.2 |
| 20260905115546 | 73 | 0 | 0.0 | 0.0 | 0.00 | 0.00 | 0.00 | 98 | 1014.1 |
| 20260905115043 | 73 | 0 | 0.0 | 0.0 | 0.00 | 0.00 | 0.00 | 98 | 1013.9 |
| 20260905114602 | 73 | 0 | 0.0 | 0.0 | 0.00 | 0.00 | 0.00 | 97 | 1014.0 |
| 20260905114043 | 73 | 0 | 0.0 | 0.0 | 0.00 | 0.00 | 0.00 | 97 | 1013.9 |
| 20260905113543 | 73 | 0 | 0.0 | 0.0 | 0.00 | 0.00 | 0.00 | 97 | 1013.9 |
| 20260905113058 | 73 | 0 | 0.0 | 0.0 | 0.00 | 0.00 | 0.00 | 97 | 1013.9 |
| 20260905112544 | 73 | 0 | 0.0 | 0.0 | 0.00 | 0.00 | 0.00 | 97 | 1013.7 |
| 20260905112043 | 73 | 0 | 0.0 | 0.0 | 0.00 | 0.00 | 0.00 | 97 | 1013.7 |
| 20260905111642 | 73 | 0 | 0.0 | 0.0 | 0.00 | 0.00 | 0.00 | 97 | 1013.6 |
| 20260905111044 | 74 | 0 | 0.0 | 0.0 | 0.00 | 0.00 | 0.00 | 97 | 1013.5 |
| 20260905110541 | 74 | 0 | 0.0 | 0.0 | 0.00 | 0.00 | 0.00 | 97 | 1013.4 |
| 20260905110051 | 74 | 0 | 0.0 | 0.0 | 0.00 | 0.00 | 0.00 | 97 | 1013.4 |
| 20260905105544 | 74 | 0 | 0.0 | 0.0 | 0.00 | 0.00 | 0.00 | 97 | 1013.4 |
| 20260905105044 | 74 | 0 | 0.0 | 0.0 | 0.00 | 0.00 | 0.00 | 97 | 1013.5 |
| 20260905104605 | 74 | 0 | 0.0 | 0.0 | 0.00 | 0.00 | 0.00 | 97 | 1013.6 |
| 20260905104046 | 74 | 0 | 0.0 | 0.0 | 0.00 | 0.00 | 0.00 | 97 | 1013.6 |
| 20260905103543 | 74 | 0 | 0.0 | 0.0 | 0.00 | 0.00 | 0.00 | 97 | 1013.6 |
| 20260905103105 | 74 | 0 | 0.0 | 0.0 | 0.00 | 0.00 | 0.00 | 97 | 1013.7 |
| 20260905102546 | 74 | 0 | 0.0 | 0.0 | 0.00 | 0.00 | 0.00 | 97 | 1013.7 |
| 20260905102044 | 74 | 0 | 0.0 | 0.0 | 0.00 | 0.00 | 0.00 | 97 | 1013.7 |
| 20260905101606 | 74 | 0 | 0.0 | 0.0 | 0.00 | 0.00 | 0.00 | 97 | 1013.7 |
| 20260905101043 | 74 | 0 | 0.0 | 0.0 | 0.00 | 0.00 | 0.00 | 97 | 1013.7 |
| 20260905100544 | 74 | 0 | 0.0 | 0.0 | 0.00 | 0.00 | 0.00 | 97 | 1013.7 |
| 20260905100100 | 74 | 0 | 0.0 | 0.0 | 0.00 | 0.00 | 0.00 | 97 | 1013.6 |
| 20260905095543 | 74 | 0 | 0.0 | 0.0 | 0.00 | 0.00 | 0.00 | 97 | 1013.6 |
| 20260905095043 | 74 | 0 | 0.0 | 0.0 | 0.00 | 0.00 | 0.00 | 97 | 1013.6 |
| 20260905094607 | 74 | 0 | 0.0 | 0.0 | 0.00 | 0.00 | 0.00 | 97 | 1013.5 |
| 20260905094044 | 74 | 0 | 0.0 | 0.0 | 0.00 | 0.00 | 0.00 | 97 | 1013.5 |
| 20260905093545 | 74 | 0 | 0.0 | 0.0 | 0.00 | 0.00 | 0.00 | 97 | 1013.4 |
| 20260905093107 | 74 | 0 | 0.0 | 0.0 | 0.00 | 0.00 | 0.00 | 97 | 1013.5 |
| 20260905092545 | 74 | 0 | 0.0 | 0.0 | 0.00 | 0.00 | 0.00 | 97 | 1013.5 |
| 20260905092044 | 74 | 0 | 0.0 | 0.0 | 0.00 | 0.00 | 0.00 | 96 | 1013.4 |
| 20260905091559 | 74 | 0 | 0.0 | 0.0 | 0.00 | 0.00 | 0.00 | 96 | 1013.4 |
| 20260905091044 | 75 | 0 | 0.0 | 0.0 | 0.00 | 0.00 | 0.00 | 96 | 1013.4 |